Location: Canet
(43.3261°N, 5.3723°E)
Time: 19:18:44
(UTC+00:00)

Envisat - Pass Details

Date: 28 September 2021
Orbit: 764 x 766 km, 98.2° (Epoch: 27 October)

Event Time Altitude Azimuth Distance (km) Brightness Sun altitude
Rises 03:46:21 0° 27° (NNE) 3,240 6.9 -19.9°
Reaches altitude 10° 03:49:11 10° 42° (NE) 2,308 6.3 -19.4°
Maximum altitude 03:53:04 22° 93° (E) 1,638 5.5 -18.7°
Drops below altitude 10° 03:56:55 10° 142° (SE) 2,295 5.7 -18.1°
Sets 03:59:43 0° 158° (SSE) 3,215 6.3 -17.6°
